Year,Month,Day,Hour,Minute,Value (Times are PST for temperature in C)
2017,12,19,00,00,3.60
2017,12,19,00,01,3.60
2017,12,19,00,02,3.60
2017,12,19,00,03,3.60
2017,12,19,00,04,3.60
2017,12,19,00,05,3.60
2017,12,19,00,06,3.60
2017,12,19,00,07,3.60
2017,12,19,00,08,3.60
2017,12,19,00,09,3.60
2017,12,19,00,10,3.60
2017,12,19,00,11,3.60
2017,12,19,00,12,3.60
2017,12,19,00,13,3.60
2017,12,19,00,14,3.60
2017,12,19,00,15,3.60
2017,12,19,00,16,3.60
2017,12,19,00,17,3.60
2017,12,19,00,18,3.50
2017,12,19,00,19,3.50
2017,12,19,00,20,3.60
2017,12,19,00,21,3.50
2017,12,19,00,22,3.50
2017,12,19,00,23,3.50
2017,12,19,00,24,3.50
2017,12,19,00,25,3.50
2017,12,19,00,26,3.50
2017,12,19,00,27,3.50
2017,12,19,00,28,3.50
2017,12,19,00,29,3.50
2017,12,19,00,30,3.50
2017,12,19,00,31,3.50
2017,12,19,00,32,3.50
2017,12,19,00,33,3.50
2017,12,19,00,34,3.50
2017,12,19,00,35,3.50
2017,12,19,00,36,3.50
2017,12,19,00,37,3.60
2017,12,19,00,38,3.60
2017,12,19,00,39,3.60
2017,12,19,00,40,3.60
2017,12,19,00,41,3.60
2017,12,19,00,42,3.60
2017,12,19,00,43,3.60
2017,12,19,00,44,3.60
2017,12,19,00,45,3.60
2017,12,19,00,46,3.60
2017,12,19,00,47,3.70
2017,12,19,00,48,3.60
2017,12,19,00,49,3.60
2017,12,19,00,50,3.60
2017,12,19,00,51,3.60
2017,12,19,00,52,3.60
2017,12,19,00,53,3.60
2017,12,19,00,54,3.60
2017,12,19,00,55,3.60
2017,12,19,00,56,3.60
2017,12,19,00,57,3.60
2017,12,19,00,58,3.60
2017,12,19,00,59,3.60
2017,12,19,01,00,3.60
2017,12,19,01,01,3.60
2017,12,19,01,02,3.50
2017,12,19,01,03,3.50
2017,12,19,01,04,3.50
2017,12,19,01,05,3.40
2017,12,19,01,06,3.40
2017,12,19,01,07,3.40
2017,12,19,01,08,3.30
2017,12,19,01,09,3.30
2017,12,19,01,10,3.30
2017,12,19,01,11,3.30
2017,12,19,01,12,3.30
2017,12,19,01,13,3.30
2017,12,19,01,14,3.30
2017,12,19,01,15,3.30
2017,12,19,01,16,3.30
2017,12,19,01,17,3.20
2017,12,19,01,18,3.20
2017,12,19,01,19,3.20
2017,12,19,01,20,3.20
2017,12,19,01,21,3.20
2017,12,19,01,22,3.20
2017,12,19,01,23,3.20
2017,12,19,01,24,3.20
2017,12,19,01,25,3.20
2017,12,19,01,26,3.20
2017,12,19,01,27,3.10
2017,12,19,01,28,3.10
2017,12,19,01,29,3.10
2017,12,19,01,30,3.00
2017,12,19,01,31,3.00
2017,12,19,01,32,3.00
2017,12,19,01,33,3.00
2017,12,19,01,34,3.00
2017,12,19,01,35,3.00
2017,12,19,01,36,3.00
2017,12,19,01,37,3.00
2017,12,19,01,38,3.00
2017,12,19,01,39,3.00
2017,12,19,01,40,2.90
2017,12,19,01,41,2.90
2017,12,19,01,42,2.90
2017,12,19,01,43,2.90
2017,12,19,01,44,2.90
2017,12,19,01,45,2.90
2017,12,19,01,46,2.90
2017,12,19,01,47,2.90
2017,12,19,01,48,2.90
2017,12,19,01,49,2.90
2017,12,19,01,50,2.90
2017,12,19,01,51,2.80
2017,12,19,01,52,2.80
2017,12,19,01,53,2.80
2017,12,19,01,54,2.80
2017,12,19,01,55,2.80
2017,12,19,01,56,2.80
2017,12,19,01,57,2.70
2017,12,19,01,58,2.70
2017,12,19,01,59,2.70
2017,12,19,02,00,2.60
2017,12,19,02,01,2.60
2017,12,19,02,02,2.60
2017,12,19,02,03,2.50
2017,12,19,02,04,2.50
2017,12,19,02,05,2.40
2017,12,19,02,06,2.40
2017,12,19,02,07,2.40
2017,12,19,02,08,2.30
2017,12,19,02,09,2.30
2017,12,19,02,10,2.30
2017,12,19,02,11,2.30
2017,12,19,02,12,2.20
2017,12,19,02,13,2.20
2017,12,19,02,14,2.20
2017,12,19,02,15,2.10
2017,12,19,02,16,2.10
2017,12,19,02,17,2.10
2017,12,19,02,18,2.00
2017,12,19,02,19,2.00
2017,12,19,02,20,1.90
2017,12,19,02,21,1.90
2017,12,19,02,22,1.80
2017,12,19,02,23,1.80
2017,12,19,02,24,1.80
2017,12,19,02,25,1.70
2017,12,19,02,26,1.70
2017,12,19,02,27,1.70
2017,12,19,02,28,1.60
2017,12,19,02,29,1.60
2017,12,19,02,30,1.50
2017,12,19,02,31,1.50
2017,12,19,02,32,1.50
2017,12,19,02,33,1.40
2017,12,19,02,34,1.40
2017,12,19,02,35,1.40
2017,12,19,02,36,1.30
2017,12,19,02,37,1.30
2017,12,19,02,38,1.30
2017,12,19,02,39,1.20
2017,12,19,02,40,1.20
2017,12,19,02,41,1.20
2017,12,19,02,42,1.20
2017,12,19,02,43,1.10
2017,12,19,02,44,1.10
2017,12,19,02,45,1.10
2017,12,19,02,46,1.00
2017,12,19,02,47,1.00
2017,12,19,02,48,1.00
2017,12,19,02,49,0.90
2017,12,19,02,50,0.90
2017,12,19,02,51,0.90
2017,12,19,02,52,0.90
2017,12,19,02,53,0.80
2017,12,19,02,54,0.80
2017,12,19,02,55,0.80
2017,12,19,02,56,0.80
2017,12,19,02,57,0.80
2017,12,19,02,58,0.80
2017,12,19,02,59,0.70
2017,12,19,03,00,0.70
2017,12,19,03,01,0.70
2017,12,19,03,02,0.70
2017,12,19,03,03,0.70
2017,12,19,03,04,0.70
2017,12,19,03,05,0.70
2017,12,19,03,06,0.70
2017,12,19,03,07,0.70
2017,12,19,03,08,0.60
2017,12,19,03,09,0.60
2017,12,19,03,10,0.60
2017,12,19,03,11,0.60
2017,12,19,03,12,0.60
2017,12,19,03,13,0.60
2017,12,19,03,14,0.60
2017,12,19,03,15,0.60
2017,12,19,03,16,0.60
2017,12,19,03,17,0.60
2017,12,19,03,18,0.60
2017,12,19,03,19,0.60
2017,12,19,03,20,0.60
2017,12,19,03,21,0.50
2017,12,19,03,22,0.50
2017,12,19,03,23,0.50
2017,12,19,03,24,0.60
2017,12,19,03,25,0.60
2017,12,19,03,26,0.60
2017,12,19,03,27,0.60
2017,12,19,03,28,0.60
2017,12,19,03,29,0.50
2017,12,19,03,30,0.60
2017,12,19,03,31,0.60
2017,12,19,03,32,0.60
2017,12,19,03,33,0.60
2017,12,19,03,34,0.60
2017,12,19,03,35,0.60
2017,12,19,03,36,0.60
2017,12,19,03,37,0.60
2017,12,19,03,38,0.60
2017,12,19,03,39,0.60
2017,12,19,03,40,0.60
2017,12,19,03,41,0.60
2017,12,19,03,42,0.60
2017,12,19,03,43,0.50
2017,12,19,03,44,0.50
2017,12,19,03,45,0.50
2017,12,19,03,46,0.50
2017,12,19,03,47,0.50
2017,12,19,03,48,0.50
2017,12,19,03,49,0.50
2017,12,19,03,50,0.50
2017,12,19,03,51,0.50
2017,12,19,03,52,0.50
2017,12,19,03,53,0.50
2017,12,19,03,54,0.40
2017,12,19,03,55,0.40
2017,12,19,03,56,0.40
2017,12,19,03,57,0.40
2017,12,19,03,58,0.40
2017,12,19,03,59,0.40
2017,12,19,04,00,0.40
2017,12,19,04,01,0.50
2017,12,19,04,02,0.50
2017,12,19,04,03,0.50
2017,12,19,04,04,0.50
2017,12,19,04,05,0.50
2017,12,19,04,06,0.50
2017,12,19,04,07,0.50
2017,12,19,04,08,0.50
2017,12,19,04,09,0.60
2017,12,19,04,10,0.60
2017,12,19,04,11,0.50
2017,12,19,04,12,0.50
2017,12,19,04,13,0.50
2017,12,19,04,14,0.50
2017,12,19,04,15,0.50
2017,12,19,04,16,0.60
2017,12,19,04,17,0.60
2017,12,19,04,18,0.60
2017,12,19,04,19,0.60
2017,12,19,04,20,0.60
2017,12,19,04,21,0.60
2017,12,19,04,22,0.60
2017,12,19,04,23,0.60
2017,12,19,04,24,0.60
2017,12,19,04,25,0.60
2017,12,19,04,26,0.60
2017,12,19,04,27,0.60
2017,12,19,04,28,0.60
2017,12,19,04,29,0.60
2017,12,19,04,30,0.60
2017,12,19,04,31,0.60
2017,12,19,04,32,0.60
2017,12,19,04,33,0.60
2017,12,19,04,34,0.60
2017,12,19,04,35,0.60
2017,12,19,04,36,0.60
2017,12,19,04,37,0.60
2017,12,19,04,38,0.60
2017,12,19,04,39,0.60
2017,12,19,04,40,0.60
2017,12,19,04,41,0.50
2017,12,19,04,42,0.50
2017,12,19,04,43,0.60
2017,12,19,04,44,0.60
2017,12,19,04,45,0.60
2017,12,19,04,46,0.60
2017,12,19,04,47,0.60
2017,12,19,04,48,0.60
2017,12,19,04,49,0.50
2017,12,19,04,50,0.50
2017,12,19,04,51,0.50
2017,12,19,04,52,0.50
2017,12,19,04,53,0.50
2017,12,19,04,54,0.50
2017,12,19,04,55,0.60
2017,12,19,04,56,0.60
2017,12,19,04,57,0.60
2017,12,19,04,58,0.60
2017,12,19,04,59,0.60
2017,12,19,05,00,0.60
2017,12,19,05,01,0.60
2017,12,19,05,02,0.60
2017,12,19,05,03,0.60
2017,12,19,05,04,0.50
2017,12,19,05,05,0.50
2017,12,19,05,06,0.50
2017,12,19,05,07,0.60
2017,12,19,05,08,0.60
2017,12,19,05,09,0.60
2017,12,19,05,10,0.60
2017,12,19,05,11,0.70
2017,12,19,05,12,0.70
2017,12,19,05,13,0.70
2017,12,19,05,14,0.70
2017,12,19,05,15,0.60
2017,12,19,05,16,0.60
2017,12,19,05,17,0.60
2017,12,19,05,18,0.60
2017,12,19,05,19,0.60
2017,12,19,05,20,0.60
2017,12,19,05,21,0.60
2017,12,19,05,22,0.60
2017,12,19,05,23,0.70
2017,12,19,05,24,0.70
2017,12,19,05,25,0.70
2017,12,19,05,26,0.70
2017,12,19,05,27,0.70
2017,12,19,05,28,0.70
2017,12,19,05,29,0.70
2017,12,19,05,30,0.70
2017,12,19,05,31,0.70
2017,12,19,05,32,0.60
2017,12,19,05,33,0.60
2017,12,19,05,34,0.60
2017,12,19,05,35,0.60
2017,12,19,05,36,0.70
2017,12,19,05,37,0.70
2017,12,19,05,38,0.70
2017,12,19,05,39,0.70
2017,12,19,05,40,0.70
2017,12,19,05,41,0.60
2017,12,19,05,42,0.60
2017,12,19,05,43,0.60
2017,12,19,05,44,0.60
2017,12,19,05,45,0.60
2017,12,19,05,46,0.60
2017,12,19,05,47,0.60
2017,12,19,05,48,0.60
2017,12,19,05,49,0.60
2017,12,19,05,50,0.60
2017,12,19,05,51,0.60
2017,12,19,05,52,0.60
2017,12,19,05,53,0.60
2017,12,19,05,54,0.60
2017,12,19,05,55,0.60
2017,12,19,05,56,0.50
2017,12,19,05,57,0.50
2017,12,19,05,58,0.50
2017,12,19,05,59,0.50
2017,12,19,06,00,0.50
2017,12,19,06,01,0.50
2017,12,19,06,02,0.50
2017,12,19,06,03,0.50
2017,12,19,06,04,0.50
2017,12,19,06,05,0.50
2017,12,19,06,06,0.50
2017,12,19,06,07,0.50
2017,12,19,06,08,0.50
2017,12,19,06,09,0.50
2017,12,19,06,10,0.50
2017,12,19,06,11,0.50
2017,12,19,06,12,0.50
2017,12,19,06,13,0.50
2017,12,19,06,14,0.50
2017,12,19,06,15,0.50
2017,12,19,06,16,0.50
2017,12,19,06,17,0.50
2017,12,19,06,18,0.50
2017,12,19,06,19,0.50
2017,12,19,06,20,0.50
2017,12,19,06,21,0.50
2017,12,19,06,22,0.50
2017,12,19,06,23,0.50
2017,12,19,06,24,0.50
2017,12,19,06,25,0.50
2017,12,19,06,26,0.50
2017,12,19,06,27,0.50
2017,12,19,06,28,0.50
2017,12,19,06,29,0.50
2017,12,19,06,30,0.50
2017,12,19,06,31,0.50
2017,12,19,06,32,0.50
2017,12,19,06,33,0.50
2017,12,19,06,34,0.50
2017,12,19,06,35,0.50
2017,12,19,06,36,0.50
2017,12,19,06,37,0.50
2017,12,19,06,38,0.50
2017,12,19,06,39,0.50
2017,12,19,06,40,0.50
2017,12,19,06,41,0.50
2017,12,19,06,42,0.50
2017,12,19,06,43,0.50
2017,12,19,06,44,0.50
2017,12,19,06,45,0.50
2017,12,19,06,46,0.50
2017,12,19,06,47,0.50
2017,12,19,06,48,0.40
2017,12,19,06,49,0.40
2017,12,19,06,50,0.40
2017,12,19,06,51,0.40
2017,12,19,06,52,0.40
2017,12,19,12,27,1.30
2017,12,19,12,28,1.30
2017,12,19,12,29,1.30
2017,12,19,12,30,1.30
2017,12,19,12,31,1.30
2017,12,19,12,32,1.30
2017,12,19,12,33,1.30
2017,12,19,12,34,1.30
2017,12,19,12,35,1.30
2017,12,19,12,36,1.30
2017,12,19,12,37,1.30
2017,12,19,12,38,1.30
2017,12,19,12,39,1.30
2017,12,19,12,40,1.30
2017,12,19,12,41,1.30
2017,12,19,12,42,1.30
2017,12,19,12,43,1.30
2017,12,19,12,44,1.30
2017,12,19,12,45,1.30
2017,12,19,12,46,1.30
2017,12,19,12,47,1.30
2017,12,19,12,48,1.30
2017,12,19,12,49,1.30
2017,12,19,12,50,1.30
2017,12,19,12,51,1.30
2017,12,19,12,52,1.30
2017,12,19,12,53,1.30
2017,12,19,12,54,1.30
2017,12,19,12,55,1.30
2017,12,19,12,56,1.30
2017,12,19,12,57,1.30
2017,12,19,12,58,1.30
2017,12,19,12,59,1.30
2017,12,19,13,00,1.30
2017,12,19,13,01,1.40
2017,12,19,13,02,1.40
2017,12,19,13,03,1.40
2017,12,19,13,04,1.40
2017,12,19,13,05,1.40
2017,12,19,13,06,1.40
2017,12,19,13,07,1.40
2017,12,19,13,08,1.40
2017,12,19,13,09,1.40
2017,12,19,13,10,1.40
2017,12,19,13,11,1.40
2017,12,19,13,12,1.40
2017,12,19,13,13,1.40
2017,12,19,13,14,1.50
2017,12,19,13,15,1.50
2017,12,19,13,16,1.40
2017,12,19,13,17,1.50
2017,12,19,13,18,1.50
2017,12,19,13,19,1.50
2017,12,19,13,20,1.50
2017,12,19,13,21,1.50
2017,12,19,13,22,1.50
2017,12,19,13,23,1.50
2017,12,19,13,24,1.50
2017,12,19,13,25,1.50
2017,12,19,13,26,1.50
2017,12,19,13,27,1.50
2017,12,19,13,28,1.50
2017,12,19,13,29,1.60
2017,12,19,13,30,1.60
2017,12,19,13,31,1.60
2017,12,19,13,32,1.60
2017,12,19,13,33,1.60
2017,12,19,13,34,1.60
2017,12,19,13,35,1.60
2017,12,19,13,36,1.60
2017,12,19,13,37,1.60
2017,12,19,13,38,1.60
2017,12,19,13,39,1.70
2017,12,19,13,40,1.70
2017,12,19,13,41,1.70
2017,12,19,13,42,1.70
2017,12,19,13,43,1.70
2017,12,19,13,44,1.70
2017,12,19,13,45,1.70
2017,12,19,13,46,1.70
2017,12,19,13,47,1.70
2017,12,19,13,48,1.70
2017,12,19,13,49,1.70
2017,12,19,13,50,1.70
2017,12,19,13,51,1.70
2017,12,19,13,52,1.70
2017,12,19,13,53,1.70
2017,12,19,13,54,1.70
2017,12,19,13,55,1.70
2017,12,19,13,56,1.70
2017,12,19,13,57,1.70
2017,12,19,13,58,1.70
2017,12,19,13,59,1.70
2017,12,19,14,00,1.70
2017,12,19,14,01,1.70
2017,12,19,14,02,1.80
2017,12,19,14,03,1.80
2017,12,19,14,04,1.80
2017,12,19,14,05,1.80
2017,12,19,14,06,1.80
2017,12,19,14,07,1.80
2017,12,19,14,08,1.80
2017,12,19,14,09,1.80
2017,12,19,14,10,1.80
2017,12,19,14,11,1.80
2017,12,19,14,12,1.80
2017,12,19,14,13,1.80
2017,12,19,14,14,1.80
2017,12,19,14,15,1.80
2017,12,19,14,16,1.80
2017,12,19,14,17,1.80
2017,12,19,14,18,1.80
2017,12,19,14,19,1.80
2017,12,19,14,20,1.80
2017,12,19,14,21,1.80
2017,12,19,14,22,1.80
2017,12,19,14,23,1.80
2017,12,19,14,24,1.80
2017,12,19,14,25,1.80
2017,12,19,14,26,1.80
2017,12,19,14,27,1.80
2017,12,19,14,28,1.80
2017,12,19,14,29,1.90
2017,12,19,14,30,1.90
2017,12,19,14,31,1.90
2017,12,19,14,32,1.90
2017,12,19,14,33,1.90
2017,12,19,14,34,1.90
2017,12,19,14,35,1.90
2017,12,19,14,36,1.90
2017,12,19,14,37,1.90
2017,12,19,14,38,1.90
2017,12,19,14,39,1.90
2017,12,19,14,40,2.00
2017,12,19,14,41,2.00
2017,12,19,14,42,2.00
2017,12,19,14,43,2.10
2017,12,19,14,44,2.10
2017,12,19,14,45,2.10
2017,12,19,14,46,2.10
2017,12,19,14,47,2.10
2017,12,19,14,48,2.10
2017,12,19,14,49,2.10
2017,12,19,14,50,2.10
2017,12,19,14,51,2.20
2017,12,19,14,52,2.20
2017,12,19,14,53,2.20
2017,12,19,14,54,2.20
2017,12,19,14,55,2.20
2017,12,19,14,56,2.20
2017,12,19,14,57,2.20
2017,12,19,14,58,2.20
2017,12,19,14,59,2.20
2017,12,19,15,00,2.20
2017,12,19,15,01,2.20
2017,12,19,15,02,2.20
2017,12,19,15,03,2.20
2017,12,19,15,04,2.20
2017,12,19,15,05,2.20
2017,12,19,15,06,2.20
2017,12,19,15,07,2.20
2017,12,19,15,08,2.20
2017,12,19,15,09,2.10
2017,12,19,15,10,2.10
2017,12,19,15,11,2.10
2017,12,19,15,12,2.10
2017,12,19,15,13,2.10
2017,12,19,15,14,2.10
2017,12,19,15,15,2.10
2017,12,19,15,16,2.00
2017,12,19,15,17,2.00
2017,12,19,15,18,2.00
2017,12,19,15,19,2.00
2017,12,19,15,20,2.00
2017,12,19,15,21,2.00
2017,12,19,15,22,2.00
2017,12,19,15,23,1.90
2017,12,19,15,24,1.90
2017,12,19,15,25,1.90
2017,12,19,15,26,1.90
2017,12,19,15,27,1.90
2017,12,19,15,28,1.90
2017,12,19,15,29,1.80
2017,12,19,15,30,1.80
2017,12,19,15,31,1.90
2017,12,19,15,32,1.80
2017,12,19,15,33,1.80
2017,12,19,15,34,1.80
2017,12,19,15,35,1.80
2017,12,19,15,36,1.80
2017,12,19,15,37,1.80
2017,12,19,15,38,1.80
2017,12,19,15,39,1.80
2017,12,19,15,40,1.80
2017,12,19,15,41,1.80
2017,12,19,15,42,1.80
2017,12,19,15,43,1.70
2017,12,19,15,44,1.70
2017,12,19,15,45,1.70
2017,12,19,15,46,1.70
2017,12,19,15,47,1.70
2017,12,19,15,48,1.70
2017,12,19,15,49,1.70
2017,12,19,15,50,1.70
2017,12,19,15,51,1.60
2017,12,19,15,52,1.60
2017,12,19,15,53,1.60
2017,12,19,15,54,1.60
2017,12,19,15,55,1.60
2017,12,19,15,56,1.60
2017,12,19,15,57,1.60
2017,12,19,15,58,1.60
2017,12,19,15,59,1.60
2017,12,19,16,00,1.60
2017,12,19,16,01,1.60
2017,12,19,16,02,1.60
2017,12,19,16,03,1.60
2017,12,19,16,04,1.60
2017,12,19,16,05,1.60
2017,12,19,16,06,1.60
2017,12,19,16,07,1.60
2017,12,19,16,08,1.60
2017,12,19,16,09,1.50
2017,12,19,16,10,1.50
2017,12,19,16,11,1.50
2017,12,19,16,12,1.50
2017,12,19,16,13,1.40
2017,12,19,16,14,1.40
2017,12,19,16,15,1.40
2017,12,19,16,16,1.40
2017,12,19,16,17,1.40
2017,12,19,16,18,1.40
2017,12,19,16,19,1.40
2017,12,19,16,20,1.40
2017,12,19,16,21,1.40
2017,12,19,16,22,1.40
2017,12,19,16,23,1.40
2017,12,19,16,24,1.40
2017,12,19,16,25,1.40
2017,12,19,16,26,1.40
2017,12,19,16,27,1.40
2017,12,19,16,28,1.40
2017,12,19,16,29,1.40
2017,12,19,16,30,1.40
2017,12,19,16,31,1.40
2017,12,19,16,32,1.40
2017,12,19,16,33,1.40
2017,12,19,16,34,1.40
2017,12,19,16,35,1.30
2017,12,19,16,36,1.30
2017,12,19,16,37,1.30
2017,12,19,16,38,1.30
2017,12,19,16,39,1.30
2017,12,19,16,40,1.30
2017,12,19,16,41,1.30
2017,12,19,16,42,1.30
2017,12,19,16,43,1.30
2017,12,19,16,44,1.30
2017,12,19,16,45,1.30
2017,12,19,16,46,1.30
2017,12,19,16,47,1.30
2017,12,19,16,48,1.30
2017,12,19,16,49,1.20
2017,12,19,16,50,1.20
2017,12,19,16,51,1.20
2017,12,19,16,52,1.20
2017,12,19,16,53,1.20
2017,12,19,16,54,1.20
2017,12,19,16,55,1.20
2017,12,19,16,56,1.20
2017,12,19,16,57,1.20
2017,12,19,16,58,1.20
2017,12,19,16,59,1.10
2017,12,19,17,00,1.10
2017,12,19,17,01,1.10
2017,12,19,17,02,1.10
2017,12,19,17,03,1.10
2017,12,19,17,04,1.10
2017,12,19,17,05,1.10
2017,12,19,17,06,1.10
2017,12,19,17,07,1.10
2017,12,19,17,08,1.10
2017,12,19,17,09,1.10
2017,12,19,17,10,1.10
2017,12,19,17,11,1.10
2017,12,19,17,12,1.10
2017,12,19,17,13,1.10
2017,12,19,17,14,1.10
2017,12,19,17,15,1.10
2017,12,19,17,16,1.00
2017,12,19,17,17,1.00
2017,12,19,17,18,1.00
2017,12,19,17,19,1.00
2017,12,19,17,20,1.10
2017,12,19,17,21,1.10
2017,12,19,17,22,1.10
2017,12,19,17,23,1.10
2017,12,19,17,24,1.10
2017,12,19,17,25,1.00
2017,12,19,17,26,1.00
2017,12,19,17,27,1.00
2017,12,19,17,28,1.00
2017,12,19,17,29,1.00
2017,12,19,17,30,1.00
2017,12,19,17,31,1.00
2017,12,19,17,32,1.00
2017,12,19,17,33,1.00
2017,12,19,17,34,1.00
2017,12,19,17,35,1.00
2017,12,19,17,36,1.00
2017,12,19,17,37,1.00
2017,12,19,17,38,1.00
2017,12,19,17,39,1.00
2017,12,19,17,40,1.00
2017,12,19,17,41,1.00
2017,12,19,17,42,1.00
2017,12,19,17,43,1.00
2017,12,19,17,44,0.90
2017,12,19,17,45,0.90
2017,12,19,17,46,1.00
2017,12,19,17,47,1.00
2017,12,19,17,48,1.00
2017,12,19,17,49,1.00
2017,12,19,17,50,1.00
2017,12,19,17,51,1.00
2017,12,19,17,52,1.00
2017,12,19,17,53,1.00
2017,12,19,17,54,1.00
2017,12,19,17,55,1.00
2017,12,19,17,56,1.00
2017,12,19,17,57,1.00
2017,12,19,17,58,1.10
2017,12,19,17,59,1.10
2017,12,19,18,00,1.10
2017,12,19,18,01,1.10
2017,12,19,18,02,1.10
2017,12,19,18,03,1.10
2017,12,19,18,04,1.10
2017,12,19,18,05,1.10
2017,12,19,18,06,1.10
2017,12,19,18,07,1.10
2017,12,19,18,08,1.20
2017,12,19,18,09,1.20
2017,12,19,18,10,1.20
2017,12,19,18,11,1.20
2017,12,19,18,12,1.20
2017,12,19,18,13,1.20
2017,12,19,18,14,1.20
2017,12,19,18,15,1.20
2017,12,19,18,16,1.20
2017,12,19,18,17,1.20
2017,12,19,18,18,1.20
2017,12,19,18,19,1.20
2017,12,19,18,20,1.20
2017,12,19,18,21,1.20
2017,12,19,18,22,1.20
2017,12,19,18,23,1.20
2017,12,19,18,24,1.20
2017,12,19,18,25,1.20
2017,12,19,18,26,1.20
2017,12,19,18,27,1.20
2017,12,19,18,28,1.10
2017,12,19,18,29,1.10
2017,12,19,18,30,1.10
2017,12,19,18,31,1.10
2017,12,19,18,32,1.10
2017,12,19,18,33,1.10
2017,12,19,18,34,1.10
2017,12,19,18,35,1.10
2017,12,19,18,36,1.10
2017,12,19,18,37,1.10
2017,12,19,18,38,1.10
2017,12,19,18,39,1.10
2017,12,19,18,40,1.10
2017,12,19,18,41,1.10
2017,12,19,18,42,1.10
2017,12,19,18,43,1.20
2017,12,19,18,44,1.20
2017,12,19,18,45,1.20
2017,12,19,18,46,1.20
2017,12,19,18,47,1.30
2017,12,19,18,48,1.30
2017,12,19,18,49,1.30
2017,12,19,18,50,1.30
2017,12,19,18,51,1.30
2017,12,19,18,52,1.30
2017,12,19,18,53,1.30
2017,12,19,18,54,1.30
2017,12,19,18,55,1.30
2017,12,19,18,56,1.30
2017,12,19,18,57,1.30
2017,12,19,18,58,1.30
2017,12,19,18,59,1.30
2017,12,19,19,00,1.30
2017,12,19,19,01,1.30
2017,12,19,19,02,1.30
2017,12,19,19,03,1.30
2017,12,19,19,04,1.30
2017,12,19,19,05,1.30
2017,12,19,19,06,1.30
2017,12,19,19,07,1.30
2017,12,19,19,08,1.30
2017,12,19,19,09,1.30
2017,12,19,19,10,1.30
2017,12,19,19,11,1.30
2017,12,19,19,12,1.30
2017,12,19,19,13,1.30
2017,12,19,19,14,1.30
2017,12,19,19,15,1.30
2017,12,19,19,16,1.30
2017,12,19,19,17,1.30
2017,12,19,19,18,1.40
2017,12,19,19,19,1.40
2017,12,19,19,20,1.40
2017,12,19,19,21,1.40
2017,12,19,19,22,1.40
2017,12,19,19,23,1.40
2017,12,19,19,24,1.40
2017,12,19,19,25,1.40
2017,12,19,19,26,1.40
2017,12,19,19,27,1.40
2017,12,19,19,28,1.40
2017,12,19,19,29,1.40
2017,12,19,19,30,1.40
2017,12,19,19,31,1.40
2017,12,19,19,32,1.40
2017,12,19,19,33,1.40
2017,12,19,19,34,1.40
2017,12,19,19,35,1.40
2017,12,19,19,36,1.40
2017,12,19,19,37,1.40
2017,12,19,19,38,1.40
2017,12,19,19,39,1.40
2017,12,19,19,40,1.40
2017,12,19,19,41,1.40
2017,12,19,19,42,1.40
2017,12,19,19,43,1.40
2017,12,19,19,44,1.40
2017,12,19,19,45,1.40
2017,12,19,19,46,1.40
2017,12,19,19,47,1.40
2017,12,19,19,48,1.40
2017,12,19,19,49,1.40
2017,12,19,19,50,1.50
2017,12,19,19,51,1.50
2017,12,19,19,52,1.50
2017,12,19,19,53,1.50
2017,12,19,19,54,1.50
2017,12,19,19,55,1.50
2017,12,19,19,56,1.50
2017,12,19,19,57,1.50
2017,12,19,19,58,1.50
2017,12,19,19,59,1.40
2017,12,19,20,00,1.40
2017,12,19,20,01,1.40
2017,12,19,20,02,1.40
2017,12,19,20,03,1.40
2017,12,19,20,04,1.40
2017,12,19,20,05,1.40
2017,12,19,20,06,1.40
2017,12,19,20,07,1.40
2017,12,19,20,08,1.40
2017,12,19,20,09,1.40
2017,12,19,20,10,1.40
2017,12,19,20,11,1.30
2017,12,19,20,12,1.30
2017,12,19,20,13,1.30
2017,12,19,20,14,1.30
2017,12,19,20,15,1.30
2017,12,19,20,16,1.30
2017,12,19,20,17,1.30
2017,12,19,20,18,1.30
2017,12,19,20,19,1.30
2017,12,19,20,20,1.30
2017,12,19,20,21,1.30
2017,12,19,20,22,1.30
2017,12,19,20,23,1.30
2017,12,19,20,24,1.30
2017,12,19,20,25,1.30
2017,12,19,20,26,1.30
2017,12,19,20,27,1.30
2017,12,19,20,28,1.30
2017,12,19,20,29,1.30
2017,12,19,20,30,1.30
2017,12,19,20,31,1.30
2017,12,19,20,32,1.30
2017,12,19,20,33,1.30
2017,12,19,20,34,1.30
2017,12,19,20,35,1.30
2017,12,19,20,36,1.30
2017,12,19,20,37,1.30
2017,12,19,20,38,1.30
2017,12,19,20,39,1.30
2017,12,19,20,40,1.30
2017,12,19,20,41,1.30
2017,12,19,20,42,1.30
2017,12,19,20,43,1.30
2017,12,19,20,44,1.30
2017,12,19,20,45,1.30
2017,12,19,20,46,1.30
2017,12,19,20,47,1.30
2017,12,19,20,48,1.30
2017,12,19,20,49,1.30
2017,12,19,20,50,1.30
2017,12,19,20,51,1.30
2017,12,19,20,52,1.30
2017,12,19,20,53,1.30
2017,12,19,20,54,1.30
2017,12,19,20,55,1.30
2017,12,19,20,56,1.30
2017,12,19,20,57,1.30
2017,12,19,20,58,1.30
2017,12,19,20,59,1.30
2017,12,19,21,00,1.30
2017,12,19,21,01,1.30
2017,12,19,21,02,1.30
2017,12,19,21,03,1.30
2017,12,19,21,04,1.40
2017,12,19,21,05,1.40
2017,12,19,21,06,1.40
2017,12,19,21,07,1.40
2017,12,19,21,08,1.40
2017,12,19,21,09,1.40
2017,12,19,21,10,1.40
2017,12,19,21,11,1.40
2017,12,19,21,12,1.40
2017,12,19,21,13,1.40
2017,12,19,21,14,1.40
2017,12,19,21,15,1.40
2017,12,19,21,16,1.40
2017,12,19,21,17,1.40
2017,12,19,21,18,1.40
2017,12,19,21,19,1.40
2017,12,19,21,20,1.40
2017,12,19,21,21,1.40
2017,12,19,21,22,1.40
2017,12,19,21,23,1.30
2017,12,19,21,24,1.30
2017,12,19,21,25,1.30
2017,12,19,21,26,1.30
2017,12,19,21,27,1.30
2017,12,19,21,28,1.30
2017,12,19,21,29,1.30
2017,12,19,21,30,1.30
2017,12,19,21,31,1.30
2017,12,19,21,32,1.30
2017,12,19,21,33,1.30
2017,12,19,21,34,1.30
2017,12,19,21,35,1.30
2017,12,19,21,36,1.30
2017,12,19,21,37,1.30
2017,12,19,21,38,1.30
2017,12,19,21,39,1.30
2017,12,19,21,40,1.30
2017,12,19,21,41,1.30
2017,12,19,21,42,1.30
2017,12,19,21,43,1.30
2017,12,19,21,44,1.30
2017,12,19,21,45,1.30
2017,12,19,21,46,1.30
2017,12,19,21,47,1.30
2017,12,19,21,48,1.30
2017,12,19,21,49,1.30
2017,12,19,21,50,1.30
2017,12,19,21,51,1.30
2017,12,19,21,52,1.30
2017,12,19,21,53,1.30
2017,12,19,21,54,1.30
2017,12,19,21,55,1.30
2017,12,19,21,56,1.30
2017,12,19,21,57,1.30
2017,12,19,21,58,1.40
2017,12,19,21,59,1.40
2017,12,19,22,00,1.40
2017,12,19,22,01,1.40
2017,12,19,22,02,1.40
2017,12,19,22,03,1.40
2017,12,19,22,04,1.40
2017,12,19,22,05,1.40
2017,12,19,22,06,1.40
2017,12,19,22,07,1.40
2017,12,19,22,08,1.40
2017,12,19,22,09,1.40
2017,12,19,22,10,1.40
2017,12,19,22,11,1.40
2017,12,19,22,12,1.40
2017,12,19,22,13,1.40
2017,12,19,22,14,1.40
2017,12,19,22,15,1.40
2017,12,19,22,16,1.40
2017,12,19,22,17,1.40
2017,12,19,22,18,1.40
2017,12,19,22,19,1.40
2017,12,19,22,20,1.40
2017,12,19,22,21,1.40
2017,12,19,22,22,1.40
2017,12,19,22,23,1.40
2017,12,19,22,24,1.40
2017,12,19,22,25,1.40
2017,12,19,22,26,1.40
2017,12,19,22,27,1.40
2017,12,19,22,28,1.40
2017,12,19,22,29,1.40
2017,12,19,22,30,1.40
2017,12,19,22,31,1.40
2017,12,19,22,32,1.40
2017,12,19,22,33,1.40
2017,12,19,22,34,1.40
2017,12,19,22,35,1.40
2017,12,19,22,36,1.40
2017,12,19,22,37,1.40
2017,12,19,22,38,1.40
2017,12,19,22,39,1.40
2017,12,19,22,40,1.40
2017,12,19,22,41,1.40
2017,12,19,22,42,1.40
2017,12,19,22,43,1.40
2017,12,19,22,44,1.40
2017,12,19,22,45,1.40
2017,12,19,22,46,1.40
2017,12,19,22,47,1.40
2017,12,19,22,48,1.40
2017,12,19,22,49,1.40
2017,12,19,22,50,1.40
2017,12,19,22,51,1.40
2017,12,19,22,52,1.40
2017,12,19,22,53,1.40
2017,12,19,22,54,1.40
2017,12,19,22,55,1.40
2017,12,19,22,56,1.40
2017,12,19,22,57,1.40
2017,12,19,22,58,1.40
2017,12,19,22,59,1.40
2017,12,19,23,00,1.50
2017,12,19,23,01,1.50
2017,12,19,23,02,1.50
2017,12,19,23,03,1.50
2017,12,19,23,04,1.50
2017,12,19,23,05,1.50
2017,12,19,23,06,1.50
2017,12,19,23,07,1.60
2017,12,19,23,08,1.60
2017,12,19,23,09,1.60
2017,12,19,23,10,1.60
2017,12,19,23,11,1.60
2017,12,19,23,12,1.60
2017,12,19,23,13,1.60
2017,12,19,23,14,1.60
2017,12,19,23,15,1.60
2017,12,19,23,16,1.60
2017,12,19,23,17,1.60
2017,12,19,23,18,1.60
2017,12,19,23,19,1.70
2017,12,19,23,20,1.70
2017,12,19,23,21,1.70
2017,12,19,23,22,1.70
2017,12,19,23,23,1.70
2017,12,19,23,24,1.70
2017,12,19,23,25,1.70
2017,12,19,23,26,1.70
2017,12,19,23,27,1.70
2017,12,19,23,28,1.70
2017,12,19,23,29,1.70
2017,12,19,23,30,1.70
2017,12,19,23,31,1.70
2017,12,19,23,32,1.70
2017,12,19,23,33,1.70
2017,12,19,23,34,1.70
2017,12,19,23,35,1.60
2017,12,19,23,36,1.60
2017,12,19,23,37,1.60
2017,12,19,23,38,1.60
2017,12,19,23,39,1.60
2017,12,19,23,40,1.60